Location: Unspecified
(0.0000°N, 0.0000°E)
Time: 17:45:48
(UTC+00:00)

Vanguard 1 - Pass Details

Date: 20 December 2025
Orbit: 651 x 3820 km, 34.2° (Epoch: 14 January)

Event Time Altitude Azimuth Distance (km) Brightness Sun altitude
Exits shadow 04:53:38 - 255° (WSW) 3,402 12.4 -14.6°
Reaches altitude 10° 04:54:03 10° 257° (WSW) 3,251 12.3 -14.5°
Maximum altitude 05:00:30 32° 318° (NW) 1,471 10.5 -13.1°
Drops below altitude 10° 05:04:56 10° 22° (NNE) 2,201 11.9 -12.1°
Sets 05:07:12 0° 34° (NE) 3,005 12.7 -11.5°
